This is the latest recevied weather packets stored in our database for station/object HK4DAP-11. If no packets are shown the sender has not sent any weather packets the latest 10 day(s).
| Time | Temp. | Humidity | Pressure | Rain* | Wind** | Luminosity | Snow |
|---|---|---|---|---|---|---|---|
| 1777822824 | 25° C | 69% | 852.3 hPa | - | - | - | - |
| 1777822523 | 25° C | 66% | 852.4 hPa | - | - | - | - |
| 1777822223 | 24.44° C | 68% | 852.4 hPa | - | - | - | - |
| 1777821923 | 24.44° C | 73% | 852.6 hPa | - | - | - | - |
| 1777821623 | 24.44° C | 73% | 852.6 hPa | - | - | - | - |
| 1777821323 | 24.44° C | 75% | 852.7 hPa | - | - | - | - |
| 1777821023 | 24.44° C | 75% | 852.8 hPa | - | - | - | - |
| 1777820723 | 24.44° C | 75% | 852.8 hPa | - | - | - | - |
| 1777820423 | 24.44° C | 74% | 852.7 hPa | - | - | - | - |
| 1777820122 | 24.44° C | 73% | 852.7 hPa | - | - | - | - |
| 1777819823 | 24.44° C | 72% | 852.8 hPa | - | - | - | - |
| 1777819522 | 24.44° C | 71% | 852.8 hPa | - | - | - | - |
| 1777819224 | 25° C | 69% | 852.8 hPa | - | - | - | - |
| 1777818922 | 25° C | 73% | 852.9 hPa | - | - | - | - |
| 1777818622 | 24.44° C | 74% | 853 hPa | - | - | - | - |
| 1777818322 | 24.44° C | 79% | 853 hPa | - | - | - | - |
| 1777818021 | 25° C | 79% | 853 hPa | - | - | - | - |
| 1777817721 | 25° C | 80% | 853.1 hPa | - | - | - | - |
| 1777817421 | 24.44° C | 80% | 853.1 hPa | - | - | - | - |
| 1777817121 | 25° C | 79% | 853.1 hPa | - | - | - | - |
| 1777816821 | 25° C | 79% | 853 hPa | - | - | - | - |
| 1777816521 | 25° C | 79% | 853.1 hPa | - | - | - | - |
| 1777816220 | 25° C | 80% | 853.1 hPa | - | - | - | - |
| 1777815920 | 24.44° C | 80% | 853.1 hPa | - | - | - | - |
| 1777815620 | 25° C | 79% | 853.1 hPa | - | - | - | - |
* Rain since midnight (hover to see other rain measurements)
** Current wind speed in m/s (hover to see current wind gust speed)